Location: Little Baddow
(51.7333°N, 0.5667°E)
Time: 14:17:50
(UTC+00:00)

PAYLOAD A - Visible Passes

Search period start: 14 February 2026 00:00
Search period end: 24 February 2026 00:00
Orbit: 690 x 828 km, 98.6° (Epoch: 13 February)

Date Brightness Start Highest point End Pass type
(mag) Time Alt. Az. Time Alt. Az. Time Alt. Az.
14 Feb 5.1 03:54:06 10° NNE 03:59:08 44° E 04:01:19 29° SSE visible
14 Feb 4.7 05:33:09 10° N 05:37:54 36° WNW 05:41:24 17° WSW visible
15 Feb 6.2 03:16:10 10° NE 03:20:18 23° E 03:22:35 17° SE visible
15 Feb 4.0 04:54:21 10° N 04:59:35 68° WNW 05:02:40 26° SW visible
15 Feb 5.7 06:34:41 10° NNW 06:37:34 15° NW 06:40:29 10° W visible
16 Feb 6.9 02:39:43 10° ENE 02:41:15 11° E 02:42:46 10° E visible
16 Feb 4.4 04:15:48 10° NNE 04:21:05 64° ESE 04:23:55 28° S visible
16 Feb 5.1 05:55:15 10° N 05:59:34 26° WNW 06:03:56 10° WSW visible
17 Feb 5.6 03:37:35 10° NNE 03:42:22 33° E 03:45:10 21° SE visible
17 Feb 4.4 05:16:17 10° N 05:21:21 47° WNW 05:25:16 17° SW visible
18 Feb 6.6 03:00:01 10° NE 03:03:26 17° E 03:06:27 11° ESE visible
18 Feb 4.0 04:37:36 10° NNE 04:42:58 89° W 04:46:32 22° SSW visible
18 Feb 5.5 06:17:29 10° N 06:21:09 19° NW 06:24:51 10° W visible
19 Feb 5.0 03:59:11 10° NNE 04:04:21 48° E 04:07:47 21° SSE visible
19 Feb 4.8 05:38:19 10° N 05:43:03 34° WNW 05:47:51 10° SW visible
20 Feb 6.1 03:21:11 10° NE 03:25:33 25° E 03:29:02 14° SE visible
20 Feb 4.1 04:59:29 10° N 05:04:46 63° WNW 05:09:08 16° SSW visible
21 Feb 6.9 02:44:17 10° ENE 02:46:30 12° E 02:48:44 10° ESE visible
21 Feb 4.3 04:20:55 10° NNE 04:26:17 70° ESE 04:30:23 18° S visible
21 Feb 5.2 06:00:26 10° N 06:04:41 25° WNW 06:08:58 10° WSW visible
22 Feb 5.5 03:42:39 10° NNE 03:47:35 36° E 03:51:38 15° SSE visible
22 Feb 4.5 05:21:27 10° N 05:26:31 44° WNW 05:31:37 10° SW visible
23 Feb 6.5 03:04:57 10° NE 03:08:41 19° E 03:12:25 10° SE visible
23 Feb 4.0 04:42:44 10° NNE 04:48:09 82° WNW 04:52:58 13° SSW visible
23 Feb 5.6 06:22:42 10° NNW 06:26:15 18° NW 06:29:50 10° W visible
